This demonstration page uses our WeatherBlox Daily Observations layout. Learn more.

Left ArrowRight Arrow

36.17497, -115.13722

Hourly Observations for June 26, 2019

Temp ( °F °C ) Dew Point ( °F °C ) Humidity (%) Winds ( mph kmh ) Pressure ( in mb ) Visibility ( mi km ) Precip ( " mm )
12:53 am 00:53 Clear 78 25.6 20 -6.7 11 11 ESE 8 13 29.76 1008 10 16 0.00 0.00
1:53 am 01:53 Clear 78 25.6 23 -5 13 13 ESE 3 6 29.75 1008 10 16 0.00 0.00
2:53 am 02:53 Clear 78 25.6 30 -1.1 17 17 S 5 7 29.75 1008 10 16 0.00 0.00
3:53 am 03:53 Clear 76 24.4 26 -3.3 16 16 W 3 6 29.76 1008 10 16 0.00 0.00
4:53 am 04:53 Clear 74 23.3 28 -2.2 18 18 Calm 29.78 1008 10 16 0.00 0.00
5:53 am 05:53 Sunny 74 23.3 32 0 21 21 Calm 29.80 1009 10 16 0.00 0.00
6:53 am 06:53 Sunny 77 25 37 2.8 24 24 E 7 11 29.82 1010 10 16 0.00 0.00
7:53 am 07:53 Sunny 81 27.2 40 4.4 23 23 SE 13 20 29.83 1010 10 16 0.00 0.00
8:53 am 08:53 Sunny 85 29.4 40 4.4 20 20 SSE 14 22 29.84 1011 10 16 0.00 0.00
9:53 am 09:53 Sunny 89 31.7 37 2.8 16 16 S 18 30 29.83 1010 10 16 0.00 0.00
10:53 am 10:53 Sunny 92 33.3 35 1.7 13 13 S 22 35 29.83 1010 10 16 0.00 0.00
11:30 am 11:30 Sunny 92 33.3 34 1.1 13 13 S 14 22 29.68 1005 10 16 0.00 0.00
11:53 am 11:53 Sunny 94 34.4 32 0 11 11 SW 21 33 29.82 1010 10 16 0.00 0.00
12:53 pm 12:53 Sunny 95 35 32 0 11 11 S 15 24 29.82 1010 10 16 0.00 0.00
1:53 pm 13:53 Sunny 98 36.7 33 0.6 10 10 S 18 30 29.79 1009 10 16 0.00 0.00
2:53 pm 14:53 Sunny 99 37.2 33 0.6 10 10 SW 17 28 29.76 1008 10 16 0.00 0.00
3:53 pm 15:53 Sunny 98 36.7 33 0.6 10 10 S 22 35 29.77 1008 10 16 0.00 0.00
4:53 pm 16:53 Sunny 97 36.1 31 -0.6 10 10 S 16 26 29.76 1008 10 16 0.00 0.00
5:53 pm 17:53 Sunny 96 35.6 31 -0.6 10 10 SSW 21 33 29.75 1007 10 16 0.00 0.00
6:53 pm 18:53 Sunny 95 35 31 -0.6 10 10 SW 14 22 29.76 1008 10 16 0.00 0.00
7:53 pm 19:53 Sunny 93 33.9 29 -1.7 10 10 SSW 18 30 29.76 1008 10 16 0.00 0.00
8:53 pm 20:53 Clear 91 32.8 28 -2.2 10 10 SSW 12 19 29.78 1009 10 16 0.00 0.00
9:53 pm 21:53 Clear 89 31.7 28 -2.2 11 11 S 13 20 29.81 1009 10 16 0.00 0.00
10:53 pm 22:53 Clear 87 30.6 27 -2.8 11 11 S 10 17 29.82 1010 10 16 0.00 0.00
11:53 pm 23:53 Clear 85 29.4 30 -1.1 14 14 S 13 20 29.82 1010 10 16 0.00 0.00

Powered by AerisWeather